Weather History for Greenville, AL

Change the Weather History Date:

Saturday, June 9, 2012

  Actual Average Record
Temperature  
Mean Temperature 72 °F -  
Max Temperature 75 °F 89 °F 102 °F (1954)
Min Temperature 69 °F 66 °F 56 °F (1983)
Cooling Degree Days 7    
Growing Degree Days 22 (Base 50)    
Moisture  
Dew Point 69 °F    
Average Humidity 91    
Maximum Humidity 97    
Minimum Humidity 78    
Precipitation  
Precipitation 0.52 in - - ()
Sea Level Pressure  
Sea Level Pressure 29.94 in    
Wind  
Wind Speed 6 mph (East)    
Max Wind Speed 16 mph    
Max Gust Speed 22 mph    
Visibility 9 miles    
Events Rain , Hail    
Averages and records for this station are not official NWS values.
T = Trace of Precipitation, MM = Missing Value Source: NWS Daily Summary

Daily Weather History Graph

Daily Weather History Graph

Search for Another Location

Airport:

Trip Planner

Search our weather history database for the weather conditions in past years. The results will help you decide how hot, cold, wet, or windy it might be!

Date:

Astronomy

Jun. 09, 2012 Rise Set
Actual Time 5:40 AM CDT 7:51 PM CDT
Civil Twilight 5:12 AM CDT 8:19 PM CDT
Nautical Twilight 4:37 AM CDT 8:53 PM CDT
Astronomical Twilight 4:01 AM CDT 9:30 PM CDT
Moon No Moon Rise 11:08 AM CDT (6/9)
Length of Visible Light 15h 07m
Length of Day
14h 11m
Waning Gibbous, 68% of the Moon is Illuminated
Jun 9
Waning Gibbous
Jun 11
Last Quarter
Jun 19
New
Jun 26
First Quarter
Jul 3
Full

Hourly Weather History & Observations

Time (CDT) Temp. Dew Point Humidity Pressure Visibility Wind Dir Wind Speed Gust Speed Precip Events Conditions
12:56 AM 72.0 °F 66.0 °F 81% 29.94 in 10.0 mi ESE 5.8 mph - N/A   Clear
1:56 AM 72.0 °F 64.9 °F 78% 29.94 in 10.0 mi ESE 4.6 mph - N/A   Clear
2:30 AM - - N/A% - - North - - N/A Hail Hail
2:56 AM 71.1 °F 64.9 °F 81% 29.93 in 10.0 mi ESE 4.6 mph - N/A   Clear
3:30 AM - - N/A% - - North - - N/A Hail Hail
3:56 AM 70.0 °F 64.9 °F 84% 29.93 in 10.0 mi ESE 4.6 mph - N/A   Clear
4:56 AM 71.1 °F 64.9 °F 81% 29.93 in 10.0 mi ESE 6.9 mph - N/A   Partly Cloudy
5:30 AM - - N/A% - - North - - N/A Hail Hail
5:45 AM - - N/A% - - North - - N/A Hail Hail
5:56 AM 70.0 °F 64.9 °F 84% 29.95 in 10.0 mi ESE 8.1 mph - 0.00 in   Clear
6:15 AM - - N/A% - - North - - N/A Hail Hail
6:56 AM 69.1 °F 66.0 °F 90% 29.96 in 10.0 mi East 4.6 mph - 0.00 in Rain Light Rain
7:56 AM 70.0 °F 66.9 °F 90% 29.98 in 10.0 mi East 4.6 mph - 0.01 in Rain Light Rain
8:27 AM 70.0 °F 66.9 °F 90% 30.00 in 7.0 mi East 5.8 mph - 0.03 in Rain Light Rain
8:56 AM 70.0 °F 66.9 °F 90% 29.99 in 9.0 mi East 8.1 mph - 0.05 in Rain Light Rain
9:16 AM 70.0 °F 66.9 °F 90% 30.00 in 10.0 mi East 8.1 mph - 0.01 in Rain Light Rain
9:35 AM 70.0 °F 68.0 °F 93% 29.99 in 10.0 mi East 6.9 mph - 0.01 in Rain Light Rain
9:56 AM 71.1 °F 68.0 °F 90% 29.98 in 10.0 mi ESE 6.9 mph - 0.01 in   Scattered Clouds
10:08 AM 71.1 °F 68.0 °F 90% 29.99 in 10.0 mi ESE 6.9 mph - N/A   Mostly Cloudy
10:30 AM - - N/A% - - North - - N/A Hail Hail
10:56 AM 72.0 °F 69.1 °F 91% 29.98 in 10.0 mi ESE 6.9 mph - N/A   Overcast
11:56 AM 73.0 °F 69.1 °F 87% 29.97 in 10.0 mi East 8.1 mph - 0.00 in   Overcast
12:56 PM 73.9 °F 69.1 °F 85% 29.94 in 10.0 mi East 8.1 mph - 0.00 in Rain Light Rain
1:56 PM 73.9 °F 70.0 °F 87% 29.93 in 10.0 mi East 6.9 mph - 0.00 in Rain Light Rain
2:56 PM 75.0 °F 71.1 °F 87% 29.93 in 10.0 mi East 5.8 mph - 0.00 in   Mostly Cloudy
3:11 PM 75.0 °F 70.0 °F 84% 29.94 in 10.0 mi East 6.9 mph - N/A   Mostly Cloudy
3:19 PM 75.9 °F 71.1 °F 85% 29.93 in 10.0 mi ENE 5.8 mph - 0.00 in Rain Light Rain
3:56 PM 75.0 °F 71.1 °F 87% 29.92 in 10.0 mi ENE 4.6 mph - 0.00 in Rain Light Rain
4:14 PM 75.0 °F 71.1 °F 87% 29.94 in 10.0 mi East 5.8 mph - 0.00 in Rain Light Rain
4:25 PM 73.9 °F 71.1 °F 91% 29.94 in 10.0 mi East 3.5 mph - 0.01 in Rain Light Rain
4:37 PM 73.9 °F 72.0 °F 93% 29.94 in 10.0 mi East 5.8 mph - 0.01 in Rain Light Rain
4:56 PM 73.9 °F 71.1 °F 91% 29.92 in 10.0 mi East 4.6 mph - 0.02 in Rain Light Rain
5:20 PM 73.0 °F 71.1 °F 93% 29.93 in 7.0 mi East 5.8 mph - 0.03 in Rain Rain
5:28 PM 73.0 °F 71.1 °F 93% 29.93 in 6.0 mi East 8.1 mph - 0.04 in Rain Rain
5:35 PM 73.0 °F 71.1 °F 93% 29.92 in 5.0 mi East 6.9 mph - 0.07 in Rain Rain
5:56 PM 73.0 °F 71.1 °F 93% 29.91 in 4.0 mi East 6.9 mph - 0.14 in Rain Rain
6:08 PM 73.0 °F 71.1 °F 93% 29.91 in 3.0 mi East 8.1 mph - 0.05 in Rain Rain
6:56 PM 72.0 °F 71.1 °F 97% 29.86 in 4.0 mi East 16.1 mph 21.9 mph 0.24 in Rain Rain
7:30 PM - - N/A% - - North - - N/A Hail Hail
7:56 PM 71.1 °F 70.0 °F 96% 29.87 in 10.0 mi Variable 6.9 mph - 0.04 in   Overcast
8:30 PM - - N/A% - - North - - N/A Hail Hail
8:35 PM 71.1 °F 70.0 °F 96% 29.90 in 10.0 mi SE 6.9 mph - N/A   Overcast
8:56 PM 71.1 °F 69.1 °F 93% 29.89 in 10.0 mi ESE 4.6 mph - N/A   Overcast
9:56 PM 70.0 °F 69.1 °F 97% 29.91 in 6.0 mi ESE 5.8 mph - 0.00 in Rain Light Rain
10:05 PM 70.0 °F 69.1 °F 97% 29.93 in 6.0 mi SE 4.6 mph - 0.00 in Rain Light Rain
10:27 PM 70.0 °F 69.1 °F 97% 29.93 in 10.0 mi ESE 8.1 mph - 0.01 in   Overcast
10:40 PM 70.0 °F 69.1 °F 97% 29.93 in 10.0 mi SE 6.9 mph - 0.01 in   Overcast
10:56 PM 70.0 °F 69.1 °F 97% 29.93 in 10.0 mi ESE 9.2 mph - 0.01 in   Overcast
11:04 PM 70.0 °F 69.1 °F 97% 29.94 in 10.0 mi SE 5.8 mph - N/A   Overcast
11:15 PM 70.0 °F 69.1 °F 97% 29.94 in 10.0 mi ESE 4.6 mph - N/A   Overcast
11:28 PM 70.0 °F 69.1 °F 97% 29.94 in 10.0 mi ESE 4.6 mph - N/A   Overcast
11:35 PM 70.0 °F 69.1 °F 97% 29.94 in 10.0 mi East 4.6 mph - N/A   Overcast
11:56 PM 70.0 °F 69.1 °F 97% 29.93 in 10.0 mi ESE 3.5 mph - N/A   Overcast